Fairbanks, AK

1:23 PM AKDT on May 24, 2017 (GMT -0800)
Fairbanks International

Weather History for PAFA - May, 2013

Change the Weather History Date:

Monday, May 6, 2013

  Actual Average Record
Temperature  
Mean Temperature 30 °F 45 °F  
Max Temperature 43 °F 57 °F 72 °F (1951)
Min Temperature 16 °F 34 °F 12 °F (1922)
Degree Days  
Heating Degree Days 35 20  
Month to date heating degree days 207 126  
Since 1 July heating degree days 14366 13150  
Cooling Degree Days 0 0  
Month to date cooling degree days 0 0  
Year to date cooling degree days 0 0  
Moisture  
Dew Point 13 °F    
Average Humidity 46    
Maximum Humidity 74    
Minimum Humidity 19    
Precipitation  
Precipitation 0.00 in 0.01 in 0.60 in (2004)
Month to date precipitation 0.11 0.09  
Year to date precipitation 2.30 1.65  
Snow  
Snow 0.00 in 0.00 in 2.00 in (1931)
Month to date snowfall 1.7 0.3  
Since 1 July snowfall 68.3 64.4  
Snow Depth 14.00 in    
Sea Level Pressure  
Sea Level Pressure 30.17 in    
Wind  
Wind Speed 3 mph (WSW)    
Max Wind Speed 12 mph    
Max Gust Speed 22 mph    
Visibility 10 miles    
Events      
T = Trace of Precipitation, MM = Missing Value Source: NWS Daily Summary

Daily Weather History Graph

Daily Weather History Graph

Search for Another Location

Airport or City:

Trip Planner

Search our weather history database for the weather conditions in past years. The results will help you decide how hot, cold, wet, or windy it might be!

Date:

Astronomy

May. 06, 2013 Rise Set
Actual Time 4:59 AM AKDT 10:39 PM AKDT
Civil Twilight 3:35 AM AKDT 12:05 AM AKDT
Nautical Twilight Sun does not set Sun does not set
Astronomical Twilight Sun does not set Sun does not set
Moon 4:22 AM AKDT (5/6) 6:45 PM AKDT (5/6)
Length of Visible Light 20h 30m
Length of Day
17h 40m
Waning Crescent, 10% of the Moon is Illuminated
May 6
Waning Crescent
May 9
New
May 17
First Quarter
May 24
Full
May 31
Last Quarter

Hourly Weather History & Observations

Time (AKDT) Temp. Windchill Dew Point Humidity Pressure Visibility Wind Dir Wind Speed Gust Speed Precip Events Conditions
12:53 AM 24.1 °F - 14.0 °F 65% 30.14 in 10.0 mi Calm Calm - N/A   Partly Cloudy
1:53 AM 21.9 °F - 12.0 °F 66% 30.15 in 10.0 mi Calm Calm - N/A   Partly Cloudy
2:53 AM 19.9 °F - 12.9 °F 74% 30.15 in 10.0 mi Calm Calm - N/A   Partly Cloudy
3:53 AM 19.9 °F 14.9 °F 10.9 °F 68% 30.17 in 10.0 mi ENE 3.5 mph - N/A   Partly Cloudy
4:53 AM 18.0 °F - 9.0 °F 68% 30.17 in 10.0 mi Calm Calm - N/A   Mostly Cloudy
5:53 AM 18.0 °F 11.1 °F 10.0 °F 71% 30.18 in 10.0 mi NNE 4.6 mph - N/A   Mostly Cloudy
6:53 AM 21.0 °F 16.2 °F 12.0 °F 68% 30.18 in 10.0 mi NNE 3.5 mph - N/A   Mostly Cloudy
7:53 AM 24.1 °F - 12.0 °F 60% 30.18 in 10.0 mi Calm Calm - N/A   Mostly Cloudy
8:53 AM 28.0 °F - 12.9 °F 53% 30.18 in 10.0 mi Calm Calm - N/A   Mostly Cloudy
9:53 AM 30.0 °F - 12.9 °F 49% 30.18 in 10.0 mi Calm Calm - N/A   Mostly Cloudy
10:53 AM 32.0 °F - 14.0 °F 48% 30.18 in 10.0 mi Calm Calm - N/A   Mostly Cloudy
11:53 AM 36.0 °F 29.6 °F 12.9 °F 39% 30.17 in 10.0 mi SSW 8.1 mph - N/A   Mostly Cloudy
12:53 PM 39.0 °F 32.3 °F 15.1 °F 38% 30.16 in 10.0 mi SSW 10.4 mph - N/A   Scattered Clouds
1:53 PM 41.0 °F 36.4 °F 14.0 °F 33% 30.17 in 10.0 mi SSW 6.9 mph - N/A   Scattered Clouds
2:53 PM 41.0 °F 34.3 °F 15.1 °F 35% 30.15 in 10.0 mi South 11.5 mph - N/A   Scattered Clouds
3:53 PM 42.1 °F 35.7 °F 14.0 °F 32% 30.15 in 10.0 mi SSW 11.5 mph 21.9 mph N/A   Scattered Clouds
4:53 PM 42.1 °F 38.4 °F 10.9 °F 28% 30.16 in 10.0 mi SW 5.8 mph 19.6 mph N/A   Mostly Cloudy
5:53 PM 43.0 °F 37.2 °F 12.9 °F 30% 30.16 in 10.0 mi West 10.4 mph - N/A   Mostly Cloudy
6:53 PM 41.0 °F 34.3 °F 12.0 °F 31% 30.17 in 10.0 mi WNW 11.5 mph - N/A   Mostly Cloudy
7:53 PM 41.0 °F 34.3 °F 14.0 °F 33% 30.18 in 10.0 mi WNW 11.5 mph - N/A   Mostly Cloudy
8:53 PM 39.9 °F 35.8 °F 14.0 °F 35% 30.19 in 10.0 mi WNW 5.8 mph - N/A   Mostly Cloudy
9:53 PM 37.9 °F 35.5 °F 17.1 °F 43% 30.20 in 10.0 mi West 3.5 mph - N/A   Mostly Cloudy
10:53 PM 37.9 °F 35.5 °F 15.1 °F 39% 30.21 in 10.0 mi South 3.5 mph - N/A   Mostly Cloudy
11:53 PM 35.1 °F - 16.0 °F 46% 30.22 in 10.0 mi Calm Calm - N/A   Mostly Cloudy